Simultaneous Nadir Overpasses (SNOs) Predictions

Prediction of SNOs between METOP-B and NOAA-19 Satellite Orbit:

Table of predicted SNOs for the next 14.0 days since TLE Epoch: 7/29/2023
Index Date (METOP-B) Time (METOP-B) Lat,Lon (METOP-B) SZA (METOP-B ) Date (NOAA-19) Time (NOAA-19) Lat,Lon (NOAA-19) SZA (NOAA-19 ) Distance(km) Time Diff (sec)
1 08/09/2023 08:26:26 -80.87, -93.49 113.62 08/09/2023 08:25:15 -80.87, -93.53 113.66 0.89 71
2 08/09/2023 09:17:06 80.88, 73.99 66.41 08/09/2023 09:16:14 80.87, 73.88 66.37 2.23 52
3 08/09/2023 10:07:48 -80.87,-118.98 113.62 08/09/2023 10:07:14 -80.87,-119.04 113.64 1.16 34
4 08/09/2023 10:58:28 80.87, 48.50 66.41 08/09/2023 10:58:13 80.87, 48.36 66.39 2.52 15
5 08/09/2023 11:49:09 -80.88,-144.11 113.58 08/09/2023 11:49:12 -80.87,-144.18 113.58 1.33 3
6 08/09/2023 12:39:49 80.88, 23.37 66.46 08/09/2023 12:40:11 80.88, 23.21 66.45 2.87 22
7 08/09/2023 13:30:30 -80.89,-169.24 113.53 08/09/2023 13:31:10 -80.88,-169.33 113.53 1.63 40



Historial Predications of SNOs between METOP-B and NOAA-19
